Showing default

BRO-6, 52422

Orbit data source: Space-Track

BRO-6, 52422 is a payload satellite owned by Unseen Labs (FR) in SSO that was launched on Mon, 02 May 2022 UTC via an ELECTRON launch vehicle from the Rocket Lab Launch Complex (RLLC). Payload-class satellites include a variety of spacecraft equipped with specific instruments for various scientific and technological missions. These include communications satellites like Starlink; space stations such as the ISS; scientific satellites like the Hubble; Earth observation satellites from companies like Planet Labs, Umbra, and HawkEye 360; GPS; miniature CubeSats for education and research; and military/defense satellites.

Loading next visibility...
Identifier
52422, 2022-047AE
Orbit
SSO
Country
Flag of FRFR
Related business
Manufacturer
GOMSpace
Mission
Operational Commercial Sigint
Bus & Motor
CUBESAT 6U, Unknown motor
Mass
10 kg wet, ~10 kg dry
Launch date (UTC)
2022-05-02 (4 years ago)
Launch vehicle
ELECTRON
Launch site
Rocket Lab Launch Complex (RLLC)
Object type
Payload
Rocket body
Debris
Shape & HBR
Box, 0.1 m
Radar Cross Section
0.080 m², Medium (>0.1 m² and < 1m²)

Expand to show TLE details & history
Last TLE update: 8 hours ago

TLE from 8 hours ago
0 BRO-6
1 52422U 22047AE  25342.82384998  .00024331  00000-0  58332-3 0  9994
2 52422  97.3539  66.6415 0005530  51.5265 308.6477 15.41382527201756
Epoch: 2025-12-08T19:46Z
TLE epoch observation values (Epoch: 2025-12-08T19:46:20.638Z)
Latitude
-0.00003°
Longitude
52.23816°
Altitude
442.794 km
Speed
7.648 km/s
True Right ascension
04h 26m 33s
True Declination
0° 00' 00"
Sunlit
Object was in full shadow at epoch
Visualization orbit readout
Latitude
Unknown
Longitude
Unknown
Altitude
Unknown
Speed
Unknown
Apparent Right ascension
Unknown
Apparent Declination
Unknown
Sunlit
N/A
Visualization observer readout
Local Sidereal Time
01:45:08
Azimuth
Unknown
Elevation
Unknown
Doppler factor
Unknown
Orbital elements
Apogee altitude
442.733 km
Perigee altitude
435.193 km
Semi-major axis
6,817.1 km
Eccentricity
0.00055
Inclination
97.3539°
RAAN
66.6415°
Arg. of periapsis
51.5265°
True anomaly
308.59819°
Mean anomaly
308.6477°
Eccentric anomaly
308.62295°
Mean motion
3.85606 °/min
Orbital period
93.36 mins
BSTAR
0.00058332
Loading maneuver chart data...
Computing Atmospheric mass density...

Documentation

Showing up to 5 results
|